Portada
METAR-TAF:

METAR-TAF

Aeroports :

Sparta, Wisconsin, Estats Units d'Amèrica

latitud: 43-57-30N, longitud: 090-44-16W, altitud: 255 m

Observació

L'informe es va fer fa 5 minuts, a les 18:35 UTC
Vent 7 kt del Sud/Sud-Oest
Temperatura 27°C
Humitat 62%
Pressió 1009 hPa
Visibilitat: 16.1 km
Núvols disperses a una alçada de 3600 ft

METAR: KCMY 251835Z AUTO 21007KT 10SM SCT036 27/19 A2981 RMK AO2 T02740191

Hora: 13:40 (18:40 UTC)


TAF: manca

Observacions i pronòstics meteorològics de més de 4000 aeroports (METAR i TAF).

Les estacions disponibles són els punts grocs i vermells al mapa.

Posi el ratolí al punt desitjat per veure el nom de l'estació.

Feu clic per veure les observacions i els pronòstics meteorològics.

Per canviar el mapa: feu clic els botons verds amb una creu de color negre per apropar; al botó verd amb un guió per allunyar la imatge; o en les fletxes verdes per a mapes adjacents.


METAR-TAF: